Weather History for Aruba, Aruba

Change the Weather History Date:

Wednesday, February 27, 2013

  Actual Average Record
Temperature  
Mean Temperature 84 °F -  
Max Temperature 89 °F 85 °F 89 °F (2005)
Min Temperature 79 °F 76 °F 75 °F (2009)
Cooling Degree Days 19    
Growing Degree Days 34 (Base 50)    
Moisture  
Dew Point 73 °F    
Average Humidity 72    
Maximum Humidity 79    
Minimum Humidity 57    
Precipitation  
Precipitation 0.00 in - - ()
Sea Level Pressure  
Sea Level Pressure 29.86 in    
Wind  
Wind Speed 20 mph ()    
Max Wind Speed 28 mph    
Max Gust Speed 39 mph    
Visibility 7.8 miles    
Events      
Averages and records for this station are not official NWS values.
T = Trace of Precipitation, MM = Missing Value Source: Averaged Metar Reports

Daily Weather History Graph

Daily Weather History Graph

Search for Another Location

Airport:

Trip Planner

Search our weather history database for the weather conditions in past years. The results will help you decide how hot, cold, wet, or windy it might be!

Date:

Astronomy

Feb. 27, 2013 Rise Set
Actual Time 6:56 AM AST 6:48 PM AST
Civil Twilight 6:35 AM AST 7:10 PM AST
Nautical Twilight 6:10 AM AST 7:35 PM AST
Astronomical Twilight 5:45 AM AST 7:59 PM AST
Moon 8:32 PM AST (2/27) 7:58 AM AST (2/27)
Length of Visible Light 12h 35m
Length of Day
11h 52m
Waning Gibbous, 96% of the Moon is Illuminated
Feb 27
Waning Gibbous
Mar 4
Last Quarter
Mar 11
New
Mar 19
First Quarter
Mar 27
Full

Hourly Weather History & Observations

Time (AST) Temp. Heat Index Dew Point Humidity Pressure Visibility Wind Dir Wind Speed Gust Speed Precip Events Conditions
12:00 AM 80.6 °F 84.6 °F 71.6 °F 74% 29.89 in 6.2 mi East 23.0 mph - N/A   Partly Cloudy
1:00 AM 80.6 °F 84.6 °F 71.6 °F 74% 29.89 in 6.2 mi East 20.7 mph - N/A   Partly Cloudy
2:00 AM 80 °F - 72 °F 70% 29.88 in 12 mi East 19.6 mph - -   Scattered Clouds
2:00 AM 78.8 °F - 71.6 °F 78% 29.86 in 6.2 mi East 19.6 mph - N/A   Partly Cloudy
3:00 AM 78.8 °F - 71.6 °F 78% 29.86 in 6.2 mi East 16.1 mph - N/A   Partly Cloudy
4:00 AM 78.8 °F - 71.6 °F 78% 29.86 in 6.2 mi East 21.9 mph - N/A   Partly Cloudy
5:00 AM 80 °F - 72 °F 71% 29.86 in 12 mi East 20.7 mph - -   Scattered Clouds
5:00 AM 80.6 °F 84.6 °F 71.6 °F 74% 29.86 in 6.2 mi East 20.7 mph - N/A   Partly Cloudy
6:00 AM 80.6 °F 85.4 °F 73.4 °F 79% 29.86 in 6.2 mi East 19.6 mph - N/A   Partly Cloudy
7:00 AM 80.6 °F 85.4 °F 73.4 °F 79% 29.86 in 6.2 mi East 19.6 mph - N/A   Partly Cloudy
8:00 AM 81 °F - 73 °F 72% 29.90 in 12 mi East 19.6 mph - -   Scattered Clouds
8:00 AM 80.6 °F 85.4 °F 73.4 °F 79% 29.89 in 6.2 mi East 19.6 mph - N/A   Partly Cloudy
9:00 AM 82.4 °F 88.2 °F 73.4 °F 74% 29.89 in 6.2 mi East 26.5 mph 39.1 mph N/A   Scattered Clouds
10:00 AM 86.0 °F 93.4 °F 73.4 °F 66% 29.89 in 6.2 mi East 26.5 mph 39.1 mph N/A   Partly Cloudy
11:00 AM 87 °F - 74 °F 58% 29.92 in 11 mi East 26.5 mph - -   Haze
11:00 AM 87.8 °F 95.6 °F 73.4 °F 62% 29.92 in 6.2 mi East 26.5 mph 38.0 mph N/A   Partly Cloudy
12:00 PM 86.0 °F 93.4 °F 73.4 °F 66% 29.89 in 6.2 mi East 27.6 mph 39.1 mph N/A   Scattered Clouds
1:00 PM 87.8 °F 97.6 °F 75.2 °F 66% 29.89 in 6.2 mi East 23.0 mph 38.0 mph N/A   Partly Cloudy
2:00 PM 87 °F - 74 °F 57% 29.86 in 11 mi East 24.2 mph - -   Haze
2:00 PM 87.8 °F 95.6 °F 73.4 °F 62% 29.86 in 6.2 mi East 24.2 mph - N/A   Partly Cloudy
3:00 PM 86.0 °F 95.1 °F 75.2 °F 70% 29.83 in 6.2 mi East 23.0 mph - N/A   Scattered Clouds
4:00 PM 86.0 °F 93.4 °F 73.4 °F 66% 29.80 in 6.2 mi East 23.0 mph 35.7 mph N/A   Scattered Clouds
5:00 PM 86 °F - 73 °F 58% 29.80 in 16 mi East 25.3 mph - -   Partly Cloudy
5:00 PM 86.0 °F 93.4 °F 73.4 °F 66% 29.80 in 6.2 mi East 25.3 mph - N/A   Scattered Clouds
6:00 PM 82.4 °F 89.5 °F 75.2 °F 79% 29.80 in 6.2 mi ENE 24.2 mph - N/A   Partly Cloudy
7:00 PM 80.6 °F 85.4 °F 73.4 °F 79% 29.80 in 6.2 mi East 24.2 mph - N/A   Partly Cloudy
8:00 PM 81 °F - 74 °F 72% 29.85 in 16 mi East 18.4 mph - -   Scattered Clouds
8:00 PM 80.6 °F 85.4 °F 73.4 °F 79% 29.83 in 6.2 mi East 18.4 mph - N/A   Partly Cloudy
9:00 PM 80.6 °F 85.4 °F 73.4 °F 79% 29.86 in 6.2 mi East 18.4 mph - N/A   Scattered Clouds
10:00 PM 80.6 °F 85.4 °F 73.4 °F 79% 29.89 in 6.2 mi East 16.1 mph - N/A   Scattered Clouds
11:00 PM 80 °F - 73 °F 74% 29.88 in 12 mi East 20.7 mph - -   Partly Cloudy
11:00 PM 80.6 °F 85.4 °F 73.4 °F 79% 29.86 in 6.2 mi East 20.7 mph - N/A   Scattered Clouds